Cecil Field, FL

5:13 AM EDT on May 24, 2017 (GMT -0400)
Cecil

Weather History for KVQQ - January, 2013

Change the Weather History Date:

Wednesday, January 30, 2013

  Actual Average (KNIP) Record (KNIP)
Temperature  
Mean Temperature 70 °F -  
Max Temperature 82 °F 63 °F 70 °F (2016)
Min Temperature 57 °F 46 °F 35 °F (2014)
Cooling Degree Days 6    
Growing Degree Days 20 (Base 50)    
Moisture  
Dew Point 64 °F    
Average Humidity 84    
Maximum Humidity 100    
Minimum Humidity 51    
Precipitation  
Precipitation 0.33 in - - ()
Sea Level Pressure  
Sea Level Pressure 29.97 in    
Wind  
Wind Speed 6 mph (South)    
Max Wind Speed 24 mph    
Max Gust Speed 43 mph    
Visibility 10 miles    
Events Rain    
Averages and records for this station are not official NWS values.
T = Trace of Precipitation, MM = Missing Value Source: NWS Daily Summary

Daily Weather History Graph

Daily Weather History Graph

Search for Another Location

Airport or City:

Trip Planner

Search our weather history database for the weather conditions in past years. The results will help you decide how hot, cold, wet, or windy it might be!

Date:

Astronomy

Jan. 30, 2013 Rise Set
Actual Time 7:19 AM EST 6:02 PM EST
Civil Twilight 6:53 AM EST 6:28 PM EST
Nautical Twilight 6:25 AM EST 6:56 PM EST
Astronomical Twilight 5:56 AM EST 7:25 PM EST
Moon 9:38 PM EST (1/30) 9:05 AM EST (1/30)
Length of Visible Light 11h 34m
Length of Day
10h 43m
Waning Gibbous, 88% of the Moon is Illuminated
Jan 30
Waning Gibbous
Feb 3
Last Quarter
Feb 10
New
Feb 17
First Quarter
Feb 25
Full

Hourly Weather History & Observations

Time (EST) Temp. Heat Index Dew Point Humidity Pressure Visibility Wind Dir Wind Speed Gust Speed Precip Events Conditions
12:15 AM 64.4 °F - 64.4 °F 100% 30.12 in 10.0 mi Calm Calm - N/A   Scattered Clouds
12:35 AM 64.4 °F - 64.4 °F 100% 30.11 in 10.0 mi Calm Calm - N/A   Partly Cloudy
12:55 AM 64.4 °F - 64.4 °F 100% 30.11 in 10.0 mi Calm Calm - N/A   Clear
1:15 AM 64.4 °F - 64.4 °F 100% 30.11 in 10.0 mi Calm Calm - N/A   Partly Cloudy
1:35 AM 64.4 °F - 64.4 °F 100% 30.11 in 10.0 mi Calm Calm - N/A   Clear
1:55 AM 64.4 °F - 64.4 °F 100% 30.10 in 10.0 mi Calm Calm - N/A   Partly Cloudy
2:15 AM 64.4 °F - 64.4 °F 100% 30.09 in 10.0 mi SE 3.5 mph - N/A   Partly Cloudy
2:35 AM 66.2 °F - 64.4 °F 94% 30.09 in 10.0 mi SSE 3.5 mph - N/A   Partly Cloudy
2:55 AM 66.2 °F - 64.4 °F 94% 30.08 in 10.0 mi SE 3.5 mph - N/A   Partly Cloudy
3:15 AM 66.2 °F - 64.4 °F 94% 30.08 in 10.0 mi Calm Calm - N/A   Clear
3:35 AM 66.2 °F - 64.4 °F 94% 30.08 in 10.0 mi SE 4.6 mph - N/A   Partly Cloudy
3:55 AM 66.2 °F - 64.4 °F 94% 30.07 in 10.0 mi SE 5.8 mph - N/A   Partly Cloudy
4:15 AM 66.2 °F - 64.4 °F 94% 30.06 in 10.0 mi SSE 6.9 mph - N/A   Clear
4:35 AM 66.2 °F - 64.4 °F 94% 30.05 in 10.0 mi SSE 5.8 mph - N/A   Clear
4:55 AM 66.2 °F - 64.4 °F 94% 30.04 in 10.0 mi SSE 5.8 mph - N/A   Clear
5:15 AM 66.2 °F - 64.4 °F 94% 30.04 in 10.0 mi SSE 4.6 mph - N/A   Clear
5:35 AM 66.2 °F - 64.4 °F 94% 30.05 in 10.0 mi SSE 5.8 mph - N/A   Clear
5:55 AM 66.2 °F - 66.2 °F 100% 30.04 in 10.0 mi SSE 4.6 mph - N/A   Clear
6:15 AM 66.2 °F - 66.2 °F 100% 30.04 in 10.0 mi SSE 4.6 mph - N/A   Clear
6:35 AM 66.2 °F - 66.2 °F 100% 30.04 in 10.0 mi SSE 5.8 mph - N/A   Clear
6:50 AM 66.2 °F - 66.2 °F 100% 30.04 in 10.0 mi South 8.1 mph - N/A   Clear
7:50 AM 66.2 °F - 66.2 °F 100% 30.03 in 10.0 mi South 6.9 mph - N/A   Scattered Clouds
8:50 AM 68.0 °F - 66.2 °F 94% 30.01 in 10.0 mi South 16.1 mph - N/A   Scattered Clouds
9:50 AM 71.6 °F - 64.4 °F 78% 30.01 in 10.0 mi South 17.3 mph 24.2 mph N/A   Scattered Clouds
10:50 AM 75.2 °F - 62.6 °F 65% 29.99 in 10.0 mi South 13.8 mph 28.8 mph N/A   Partly Cloudy
11:50 AM 78.8 °F - 62.6 °F 57% 29.96 in 10.0 mi South 19.6 mph 28.8 mph N/A   Clear
12:50 PM 80.6 °F 81.8 °F 62.6 °F 54% 29.93 in 10.0 mi South 16.1 mph 28.8 mph N/A   Clear
2:50 PM 82.4 °F 83.9 °F 64.4 °F 54% 29.87 in 10.0 mi South 16.1 mph 28.8 mph N/A   Scattered Clouds
3:50 PM 82.4 °F 83.4 °F 62.6 °F 51% 29.84 in 10.0 mi South 17.3 mph 28.8 mph N/A   Scattered Clouds
6:50 PM 77.0 °F - 60.8 °F 57% 29.81 in 10.0 mi South 13.8 mph - N/A   Clear
7:50 PM 75.2 °F - 59.0 °F 57% 29.81 in 10.0 mi SSW 13.8 mph 24.2 mph N/A   Clear
8:15 PM 75.2 °F - 60.8 °F 61% 29.81 in 10.0 mi South 16.1 mph 20.7 mph N/A   Clear
8:35 PM 75.2 °F - 62.6 °F 65% 29.81 in 10.0 mi South 15.0 mph 21.9 mph N/A   Clear
8:55 PM 75.2 °F - 62.6 °F 65% 29.81 in 10.0 mi South 11.5 mph 21.9 mph N/A   Partly Cloudy
9:15 PM 75.2 °F - 62.6 °F 65% 29.82 in 10.0 mi South 16.1 mph 27.6 mph N/A   Partly Cloudy
9:35 PM 73.4 °F - 62.6 °F 69% 29.82 in 10.0 mi South 16.1 mph 23.0 mph N/A   Clear
9:55 PM 73.4 °F - 62.6 °F 69% 29.82 in 10.0 mi South 15.0 mph 21.9 mph N/A   Mostly Cloudy
10:15 PM 73.4 °F - 64.4 °F 73% 29.82 in 10.0 mi South 12.7 mph 20.7 mph N/A   Overcast
10:35 PM 73.4 °F - 64.4 °F 73% 29.82 in 10.0 mi South 12.7 mph 23.0 mph N/A   Overcast
10:55 PM 73.4 °F - 64.4 °F 73% 29.82 in 10.0 mi South 11.5 mph 25.3 mph N/A   Overcast
11:15 PM 62.6 °F - 59.0 °F 88% 29.89 in 0.8 mi West 24.2 mph 42.6 mph 0.31 in Rain Heavy Rain
11:35 PM 59.0 °F - 57.2 °F 94% 29.91 in 5.0 mi West 18.4 mph 28.8 mph 0.33 in Rain Light Rain
11:55 PM 57.2 °F - 57.2 °F 100% 29.91 in 8.0 mi West 10.4 mph - 0.33 in Rain Light Rain